Regional Weather Roundup
Issued by NWS

Home | Current Version | Previous Version | Graphics & Text | Print | Product List | Glossary Off
Versions: 1 2 3 4 5 6 7 8 9 10 11 12 13 14 15 16 17 18 19 20 21 22 23 24 25 26 27 28 29 30 31 32 33 34 35 36 37 38 39 40 41 42 43 44 45 46 47 48 49 50

000
ASUS43 KTOP 121459
RWRKS

WEATHER ROUNDUP FOR KANSAS
NATIONAL WEATHER SERVICE GOODLAND KS
900 AM CST FRI FEB 12 2016

NOTE:  "FAIR" INDICATES FEW OR NO CLOUDS BELOW 12,000 FEET WITH NO
SIGNIFICANT WEATHER AND/OR OBSTRUCTIONS TO VISIBILITY.

KSZ001>006-013>018-027>032-041>047-121600-
NORTHWEST KANSAS

CITY           SKY/WX    TMP DP  RH WIND       PRES   REMARKS
GOODLAND       SUNNY     36  29  75 W6        30.33R
HAYS           CLOUDY    30  21  69 NE13      30.39R WCI  20
HILL CITY      SUNNY     33  29  85 N3        30.40R
RUSSELL        CLOUDY    30  27  88 N13       30.40R WCI  20
$$

KSZ061>065-074>080-084>089-121600-
SOUTHWEST KANSAS

CITY           SKY/WX    TMP DP  RH WIND       PRES   REMARKS
DODGE CITY     CLOUDY    35  30  82 N9        30.34R
ELKHART          N/A     37  24  59 NW6         N/A
GARDEN CITY    MOSUNNY   34  29  82 NW3       30.35R
GREAT BEND     CLOUDY    30  23  74 N15       30.39R WCI  19
LIBERAL        SUNNY     37  28  70 N6        30.35R
$$

KSZ066>073-081>083-090>101-121600-
SOUTHEAST KANSAS

CITY           SKY/WX    TMP DP  RH WIND       PRES   REMARKS
CHANUTE        SUNNY     33  25  72 N17G24    30.36R WCI  22
COFFEYVILLE    SUNNY     35  27  72 N18       30.35R WCI  24
HUTCHINSON     CLOUDY    31  26  82 N10       30.39R WCI  22
MEDICINE LODGE   N/A     36  30  79 N15       30.35R WCI  27
NEWTON         CLOUDY    30  23  74 N17       30.38R WCI  18
PARSONS        SUNNY     35  26  69 N17G23    30.35R WCI  25
WICHITA INTL   CLOUDY    32  28  85 NE20      30.37R FOG     WCI  20
WICHITA JABRA  CLOUDY    31  27  85 N13G20    30.37R FOG     WCI  21
WINFIELD       SUNNY     35  28  75 N15       30.36R WCI  25
$$

KSZ007>012-019>026-033>040-048>060-102>105-121600-
NORTHEAST KANSAS

CITY           SKY/WX    TMP DP  RH WIND       PRES   REMARKS
EMPORIA        CLOUDY    29  26  89 N10       30.38R WCI  20
LAWRENCE       CLOUDY    32  24  72 N10       30.39R WCI  24
MANHATTAN      CLOUDY    30  25  81 N8        30.43R
OLATHE IND     SUNNY     31  23  72 N16G24    30.37R WCI  20
OLATHE EXE     MOSUNNY   31  21  66 N18       30.35R WCI  19
SALINA         CLOUDY    32  26  78 N14       30.43R WCI  22
TOPEKA BILLARD CLOUDY    32  24  72 N18       30.41R WCI  20
TOPEKA FORBES  CLOUDY    32  25  75 N10       30.39R WCI  24
$$



USA.gov is the U.S. government's official web portal to all federal, state and local government web resources and services.